Weather History for PAWG - September, 2013

Change the Weather History Date:

Monday, September 9, 2013

  Actual Average Record
Temperature  
Mean Temperature 54 °F -  
Max Temperature 60 °F 59 °F 74 °F (1989)
Min Temperature 48 °F 45 °F 38 °F (1970)
Degree Days  
Heating Degree Days 11    
Growing Degree Days 4 (Base 50)    
Moisture  
Dew Point 47 °F    
Average Humidity 80    
Maximum Humidity 93    
Minimum Humidity 59    
Precipitation  
Precipitation 0.00 in - - ()
Sea Level Pressure  
Sea Level Pressure 30.17 in    
Wind  
Wind Speed 3 mph (SSW)    
Max Wind Speed 7 mph    
Max Gust Speed -    
Visibility 9 miles    
Events      
Averages and records for this station are not official NWS values.
T = Trace of Precipitation, MM = Missing Value Source: NWS Daily Summary

Daily Weather History Graph

Daily Weather History Graph

Search for Another Location

Airport or City:

Trip Planner

Search our weather history database for the weather conditions in past years. The results will help you decide how hot, cold, wet, or windy it might be!

Date:

Astronomy

Sep. 09, 2013 Rise Set
Actual Time 6:09 AM AKDT 7:22 PM AKDT
Civil Twilight 5:30 AM AKDT 8:00 PM AKDT
Nautical Twilight 4:43 AM AKDT 8:48 PM AKDT
Astronomical Twilight 3:49 AM AKDT 9:41 PM AKDT
Moon 11:39 AM AKDT (9/9) 8:41 PM AKDT (9/9)
Length of Visible Light 14h 30m
Length of Day
13h 12m
Waxing Crescent, 20% of the Moon is Illuminated
Sep 9
Waxing Crescent
Sep 12
First Quarter
Sep 19
Full
Sep 26
Last Quarter
Oct 4
New

Hourly Weather History & Observations

Time (AKDT) Temp. Dew Point Humidity Pressure Visibility Wind Dir Wind Speed Gust Speed Precip Events Conditions
12:16 AM 50.0 °F 44.6 °F 82% 30.18 in 10.0 mi Calm Calm - N/A   Clear
12:36 AM 48.2 °F 44.6 °F 87% 30.17 in 10.0 mi Calm Calm - N/A   Clear
12:56 AM 48.2 °F 44.6 °F 87% 30.16 in 10.0 mi Calm Calm - N/A   Clear
1:16 AM 50.0 °F 46.4 °F 87% 30.16 in 10.0 mi ESE 3.5 mph - N/A   Clear
1:36 AM 50.0 °F 44.6 °F 82% 30.16 in 10.0 mi SE 4.6 mph - N/A   Clear
1:56 AM 50.0 °F 44.6 °F 82% 30.16 in 10.0 mi SE 3.5 mph - N/A   Clear
2:16 AM 50.0 °F 44.6 °F 82% 30.16 in 10.0 mi Calm Calm - N/A   Clear
2:36 AM 48.2 °F 44.6 °F 87% 30.17 in 10.0 mi Calm Calm - N/A   Clear
2:56 AM 50.0 °F 44.6 °F 82% 30.17 in 8.0 mi SW 5.8 mph - N/A   Clear
3:16 AM 48.2 °F 44.6 °F 87% 30.17 in 6.0 mi Calm Calm - N/A   Clear
3:36 AM 48.2 °F 46.4 °F 93% 30.17 in 7.0 mi Calm Calm - N/A   Clear
3:56 AM 48.2 °F 44.6 °F 87% 30.17 in 7.0 mi Calm Calm - N/A   Clear
4:16 AM 48.2 °F 44.6 °F 87% 30.16 in 9.0 mi SSE 4.6 mph - N/A   Clear
4:36 AM 48.2 °F 44.6 °F 87% 30.16 in 9.0 mi Calm Calm - N/A   Clear
4:56 AM 48.2 °F 44.6 °F 87% 30.15 in 9.0 mi SE 4.6 mph - N/A   Clear
5:16 AM 48.2 °F 44.6 °F 87% 30.16 in 9.0 mi SSE 5.8 mph - N/A   Clear
5:36 AM 48.2 °F 44.6 °F 87% 30.16 in 10.0 mi SSE 3.5 mph - N/A   Clear
5:56 AM 48.2 °F 44.6 °F 87% 30.17 in 3.0 mi South 3.5 mph - N/A   Scattered Clouds
6:16 AM 48.2 °F 44.6 °F 87% 30.17 in 3.0 mi ESE 4.6 mph - N/A   Scattered Clouds
6:36 AM 48.2 °F 44.6 °F 87% 30.18 in 0.5 mi SSE 3.5 mph - N/A   Mostly Cloudy
6:56 AM 48.2 °F 44.6 °F 87% 30.18 in 0.5 mi SE 3.5 mph - N/A   Mostly Cloudy
7:16 AM 48.2 °F 44.6 °F 87% 30.18 in 0.5 mi SE 4.6 mph - N/A   Mostly Cloudy
7:36 AM 50.0 °F 46.4 °F 87% 30.18 in 10.0 mi SE 4.6 mph - N/A   Mostly Cloudy
7:56 AM 50.0 °F 46.4 °F 87% 30.18 in 10.0 mi SE 5.8 mph - N/A   Mostly Cloudy
8:16 AM 50.0 °F 46.4 °F 87% 30.18 in 10.0 mi SE 5.8 mph - N/A   Mostly Cloudy
8:36 AM 51.8 °F 46.4 °F 82% 30.18 in 10.0 mi ESE 5.8 mph - N/A   Mostly Cloudy
8:56 AM 51.8 °F 48.2 °F 88% 30.18 in 10.0 mi ESE 6.9 mph - N/A   Mostly Cloudy
9:16 AM 53.6 °F 48.2 °F 82% 30.18 in 10.0 mi ESE 5.8 mph - N/A   Mostly Cloudy
9:36 AM 51.8 °F 46.4 °F 82% 30.19 in 10.0 mi West 5.8 mph - N/A   Mostly Cloudy
9:56 AM 51.8 °F 46.4 °F 82% 30.18 in 10.0 mi NNW 4.6 mph - N/A   Mostly Cloudy
10:16 AM 51.8 °F 48.2 °F 88% 30.18 in 10.0 mi North 4.6 mph - N/A   Mostly Cloudy
10:36 AM 51.8 °F 46.4 °F 82% 30.19 in 10.0 mi NW 5.8 mph - N/A   Mostly Cloudy
10:56 AM 53.6 °F 48.2 °F 82% 30.19 in 10.0 mi NNW 5.8 mph - N/A   Mostly Cloudy
11:16 AM 53.6 °F 48.2 °F 82% 30.18 in 10.0 mi WSW 3.5 mph - N/A   Mostly Cloudy
11:36 AM 53.6 °F 48.2 °F 82% 30.18 in 10.0 mi North 3.5 mph - N/A   Mostly Cloudy
11:56 AM 55.4 °F 48.2 °F 77% 30.18 in 10.0 mi North 4.6 mph - N/A   Mostly Cloudy
12:16 PM 53.6 °F 48.2 °F 82% 30.18 in 10.0 mi NNW 5.8 mph - N/A   Mostly Cloudy
12:36 PM 55.4 °F 48.2 °F 77% 30.18 in 10.0 mi NNW 5.8 mph - N/A   Mostly Cloudy
12:56 PM 55.4 °F 48.2 °F 77% 30.18 in 10.0 mi West 5.8 mph - N/A   Overcast
1:16 PM 55.4 °F 48.2 °F 77% 30.18 in 10.0 mi NNW 4.6 mph - N/A   Overcast
1:36 PM 55.4 °F 48.2 °F 77% 30.18 in 10.0 mi WNW 3.5 mph - N/A   Overcast
1:56 PM 57.2 °F 48.2 °F 72% 30.18 in 10.0 mi NNW 4.6 mph - N/A   Overcast
2:16 PM 57.2 °F 48.2 °F 72% 30.18 in 10.0 mi West 6.9 mph - N/A   Overcast
2:56 PM 57.2 °F 48.2 °F 72% 30.18 in 10.0 mi NW 3.5 mph - N/A   Mostly Cloudy
3:16 PM 57.2 °F 46.4 °F 67% 30.17 in 10.0 mi Calm Calm - N/A   Mostly Cloudy
3:36 PM 57.2 °F 48.2 °F 72% 30.17 in 10.0 mi NW 3.5 mph - N/A   Mostly Cloudy
3:56 PM 60.8 °F 46.4 °F 59% 30.17 in 10.0 mi WSW 5.8 mph - N/A   Mostly Cloudy
4:16 PM 59.0 °F 46.4 °F 63% 30.16 in 10.0 mi WSW 5.8 mph - N/A   Mostly Cloudy
4:36 PM 59.0 °F 46.4 °F 63% 30.16 in 10.0 mi SW 6.9 mph - N/A   Mostly Cloudy
4:56 PM 59.0 °F 46.4 °F 63% 30.16 in 10.0 mi SW 4.6 mph - N/A   Mostly Cloudy
5:16 PM 59.0 °F 46.4 °F 63% 30.16 in 10.0 mi SW 4.6 mph - N/A   Mostly Cloudy
5:36 PM 59.0 °F 46.4 °F 63% 30.16 in 10.0 mi SW 4.6 mph - N/A   Mostly Cloudy
5:56 PM 59.0 °F 46.4 °F 63% 30.15 in 10.0 mi SW 3.5 mph - N/A   Mostly Cloudy
6:16 PM 55.4 °F 48.2 °F 77% 30.15 in 10.0 mi Calm Calm - N/A   Mostly Cloudy
6:36 PM 57.2 °F 46.4 °F 67% 30.15 in 10.0 mi Calm Calm - N/A   Mostly Cloudy
6:56 PM 55.4 °F 46.4 °F 72% 30.15 in 10.0 mi Calm Calm - N/A   Mostly Cloudy
7:16 PM 53.6 °F 46.4 °F 77% 30.14 in 10.0 mi Calm Calm - N/A   Mostly Cloudy
7:36 PM 55.4 °F 48.2 °F 77% 30.15 in 10.0 mi Calm Calm - N/A   Mostly Cloudy
7:56 PM 55.4 °F 48.2 °F 77% 30.15 in 10.0 mi Calm Calm - N/A   Mostly Cloudy
8:16 PM 53.6 °F 48.2 °F 82% 30.16 in 10.0 mi Calm Calm - N/A   Mostly Cloudy
8:36 PM 53.6 °F 46.4 °F 77% 30.15 in 10.0 mi SSW 3.5 mph - N/A   Mostly Cloudy
8:56 PM 53.6 °F 46.4 °F 77% 30.15 in 10.0 mi SW 3.5 mph - N/A   Mostly Cloudy
9:16 PM 53.6 °F 48.2 °F 82% 30.15 in 10.0 mi Calm Calm - N/A   Mostly Cloudy
9:36 PM 53.6 °F 48.2 °F 82% 30.14 in 10.0 mi Calm Calm - N/A   Mostly Cloudy
9:56 PM 53.6 °F 48.2 °F 82% 30.14 in 10.0 mi Calm Calm - N/A   Overcast
10:16 PM 53.6 °F 48.2 °F 82% 30.14 in 10.0 mi Calm Calm - N/A   Overcast
10:36 PM 51.8 °F 46.4 °F 82% 30.13 in 10.0 mi Calm Calm - N/A   Overcast
10:56 PM 51.8 °F 46.4 °F 82% 30.14 in 10.0 mi Calm Calm - N/A   Overcast
11:16 PM 51.8 °F 46.4 °F 82% 30.14 in 10.0 mi Calm Calm - N/A   Mostly Cloudy
11:36 PM 51.8 °F 46.4 °F 82% 30.14 in 10.0 mi Calm Calm - N/A   Mostly Cloudy
11:56 PM 51.8 °F 46.4 °F 82% 30.14 in 10.0 mi Calm Calm - N/A   Overcast